To NAV CANADA Home Page Login to a new session Search on AWWS site Feedback and Comments Disclaimer Vers la page française équivalente Tips FAQ What's new on the site To the Forecasts and Observations / NOTAM section To "File a Flight Plan" website Publications and other links Update of the User's profile FIC Telephone Numbers My Weather Data Folder Route Weather Data Regional Weather Data Local Weather Data To the Forecasts and Observations / NOTAM section
Request Generated 02/24/2017 at 03:39:05 UTC . Weather information available at that time is displayed.

METAR/TAF

OLD CROW/YT    

LWIS CYOC 240300Z AUTO 00000KT M23/M27 A3037=
LWIS CYOC 240100Z AUTO 10003KT 060V130 M23/M28 A3043=

*** REMARK        : Forecast period has ended; this was the last TAF issued
*** REMARQUE : La période de prévision est échue; ceci était le dernier TAF qui a été émis
TAF CYOC 232341Z 2400/2402 FCST NOT AVBL DUE NO OBS
RMK NXT FCST WILL BE ISSUED AT 241545Z=
Your time UTC time
Weather data provided by Environment Canada and NAV CANADA